Back to catalog

STARLINK-37337

AliveCommunicationsVLEO
NORAD 68953·PAYLOAD·🇺🇸 United States

Launched May 1, 2026 from Cape Canaveral Space Force Station

Loading…

Next Passes (next 24 hours)

TLE

FreshSource: CelesTrak SupGP

Epoch: Sep 14, 2026, 15:40 UTC

1 68953C 26099C   26257.65326389 -.00010082  00000+0 -29780-3 0  2579
2 68953  53.1572 103.3613 0001154  92.4714 269.5678 15.34402812    15

Track STARLINK-37337 in real time with AllMySat

Download on the App Store